Location: Oshawa
(43.9000°N, 78.8670°W)
Time: 03:48:54
(UTC-04:00)

Cosmos 1821 Rocket - Pass Details

Date: 27 April 2018
Orbit: 944 x 1006 km, 82.9° (Epoch: 19 September)

Event Time Altitude Azimuth Distance (km) Brightness Sun altitude
Exits shadow 21:53:26 13° 173° (S) 2,564 5.8 -16.3°
Maximum altitude 21:59:09 66° 94° (E) 1,075 4.0 -17.1°
Drops below altitude 10° 22:05:21 10° 14° (NNE) 2,733 6.7 -18.0°
Sets 22:07:52 0° 11° (NNE) 3,675 7.5 -18.3°
